Location: *
(46.1333°S, 161.2167°W)
Time: 09:20:24
(UTC+00:00)

Cosmos 2298 Rocket - Pass Details

Date: 29 October 2020
Orbit: 777 x 783 km, 74.0° (Epoch: 25 November)

Event Time Altitude Azimuth Distance (km) Brightness Sun altitude
Exits shadow 11:40:40 55° 237° (WSW) 950 4.4 -28.0°
Drops below altitude 10° 11:45:50 10° 166° (SSE) 2,376 7.5 -27.7°
Sets 11:48:19 0° 161° (SSE) 3,312 8.6 -27.5°
